Time,TemperatureF,DewpointF,PressureIn,WindDirection,WindDirectionDegrees,WindSpeedMPH,WindSpeedGustMPH,Humidity,HourlyPrecipIn,Conditions,Clouds,dailyrainin,SolarRadiationWatts/m^2,SoftwareType,DateUTC
2013-02-22 00:01:00,55.0,54.0,-100.00,East,91,3.0,13.0,97,0.09,,,-99.99,0.000000,,2013-02-22 10:01:00,
2013-02-22 00:11:00,55.0,54.0,-100.00,East,91,3.0,13.0,97,0.09,,,-99.99,0.000000,,2013-02-22 10:11:00,
2013-02-22 00:21:00,55.0,54.0,-100.00,East,91,3.0,13.0,97,0.09,,,-99.99,0.000000,,2013-02-22 10:21:00,
2013-02-22 00:42:00,55.0,54.0,-100.00,East,85,3.0,12.0,97,0.03,,,-99.99,0.000000,,2013-02-22 10:42:00,
2013-02-22 00:52:00,55.0,54.0,-100.00,East,85,3.0,12.0,97,0.03,,,-99.99,0.000000,,2013-02-22 10:52:00,
2013-02-22 01:01:00,55.0,54.0,-100.00,East,85,3.0,12.0,97,0.03,,,-99.99,0.000000,,2013-02-22 11:01:00,
2013-02-22 01:11:00,55.0,54.0,-100.00,East,85,3.0,12.0,97,0.03,,,-99.99,0.000000,,2013-02-22 11:11:00,
2013-02-22 01:21:00,55.0,54.0,-100.00,East,85,3.0,12.0,97,0.03,,,-99.99,0.000000,,2013-02-22 11:21:00,
2013-02-22 01:42:00,55.0,54.0,-100.00,ESE,106,2.0,9.0,97,0.11,,,-99.99,0.000000,,2013-02-22 11:42:00,
2013-02-22 01:52:00,55.0,54.0,-100.00,ESE,106,2.0,9.0,97,0.11,,,-99.99,0.000000,,2013-02-22 11:52:00,
2013-02-22 02:02:00,55.0,54.0,-100.00,ESE,106,2.0,9.0,97,0.11,,,-99.99,0.000000,,2013-02-22 12:02:00,
2013-02-22 02:11:00,55.0,54.0,-100.00,ESE,106,2.0,9.0,97,0.11,,,-99.99,0.000000,,2013-02-22 12:11:00,
2013-02-22 02:21:00,55.0,54.0,-100.00,ESE,106,2.0,9.0,97,0.11,,,-99.99,0.000000,,2013-02-22 12:21:00,
2013-02-22 02:22:00,55.0,54.0,-100.00,ESE,120,3.0,11.0,97,0.08,,,-99.99,0.000000,,2013-02-22 12:22:00,
2013-02-22 02:42:00,55.0,54.0,-100.00,ESE,120,3.0,11.0,97,0.08,,,-99.99,0.000000,,2013-02-22 12:42:00,
2013-02-22 02:52:00,55.0,54.0,-100.00,ESE,120,3.0,11.0,97,0.08,,,-99.99,0.000000,,2013-02-22 12:52:00,
2013-02-22 03:01:00,55.0,54.0,-100.00,ESE,120,3.0,11.0,97,0.08,,,-99.99,0.000000,,2013-02-22 13:01:00,
2013-02-22 03:11:00,55.0,54.0,-100.00,ESE,120,3.0,11.0,97,0.08,,,-99.99,0.000000,,2013-02-22 13:11:00,
2013-02-22 03:42:00,55.0,54.0,-100.00,ESE,110,2.0,14.0,97,0.01,,,-99.99,0.000000,,2013-02-22 13:42:00,
2013-02-22 03:52:00,55.0,54.0,-100.00,ESE,110,2.0,14.0,97,0.01,,,-99.99,0.000000,,2013-02-22 13:52:00,
2013-02-22 04:01:00,55.0,54.0,-100.00,ESE,110,2.0,14.0,97,0.01,,,-99.99,0.000000,,2013-02-22 14:01:00,
2013-02-22 04:11:00,55.0,54.0,-100.00,ESE,110,2.0,14.0,97,0.01,,,-99.99,0.000000,,2013-02-22 14:11:00,
2013-02-22 04:21:00,55.0,54.0,-100.00,ESE,110,2.0,14.0,97,0.01,,,-99.99,0.000000,,2013-02-22 14:21:00,
2013-02-22 04:42:00,55.0,54.0,-100.00,East,94,3.0,12.0,97,0.00,,,-99.99,0.000000,,2013-02-22 14:42:00,
2013-02-22 04:53:00,55.0,54.0,-100.00,East,94,3.0,12.0,97,0.00,,,-99.99,0.000000,,2013-02-22 14:53:00,
2013-02-22 05:01:00,55.0,54.0,-100.00,East,94,3.0,12.0,97,0.00,,,-99.99,0.000000,,2013-02-22 15:01:00,
2013-02-22 05:11:00,55.0,54.0,-100.00,East,94,3.0,12.0,97,0.00,,,-99.99,0.000000,,2013-02-22 15:11:00,
2013-02-22 05:21:00,55.0,54.0,-100.00,East,94,3.0,12.0,97,0.00,,,-99.99,0.000000,,2013-02-22 15:21:00,
2013-02-22 05:42:00,55.0,54.0,-100.00,NNW,345,3.0,16.0,97,0.02,,,-99.99,0.000000,,2013-02-22 15:42:00,
2013-02-22 05:52:00,55.0,54.0,-100.00,NNW,345,3.0,16.0,97,0.02,,,-99.99,0.000000,,2013-02-22 15:52:00,
2013-02-22 06:01:00,55.0,54.0,-100.00,NNW,345,3.0,16.0,97,0.02,,,-99.99,0.000000,,2013-02-22 16:01:00,
2013-02-22 06:11:00,55.0,54.0,-100.00,NNW,345,3.0,16.0,97,0.02,,,-99.99,0.000000,,2013-02-22 16:11:00,
2013-02-22 06:21:00,55.0,54.0,-100.00,NNW,345,3.0,16.0,97,0.02,,,-99.99,0.000000,,2013-02-22 16:21:00,
2013-02-22 06:42:00,55.0,54.0,-100.00,WNW,299,2.0,23.0,97,0.01,,,-99.99,0.000000,,2013-02-22 16:42:00,
2013-02-22 06:52:00,55.0,54.0,-100.00,WNW,299,2.0,23.0,97,0.01,,,-99.99,0.000000,,2013-02-22 16:52:00,
2013-02-22 07:01:00,55.0,54.0,-100.00,WNW,299,2.0,23.0,97,0.01,,,-99.99,0.000000,,2013-02-22 17:01:00,
2013-02-22 07:11:00,55.0,54.0,-100.00,WNW,299,2.0,23.0,97,0.01,,,-99.99,0.000000,,2013-02-22 17:11:00,
2013-02-22 07:21:00,55.0,54.0,-100.00,WNW,299,2.0,23.0,97,0.01,,,-99.99,0.000000,,2013-02-22 17:21:00,
2013-02-22 07:22:00,55.0,54.0,-100.00,NNW,335,2.0,11.0,97,0.01,,,-99.99,0.000000,,2013-02-22 17:22:00,
2013-02-22 07:42:00,55.0,54.0,-100.00,NNW,335,2.0,11.0,97,0.01,,,-99.99,0.000000,,2013-02-22 17:42:00,
2013-02-22 07:52:00,55.0,54.0,-100.00,NNW,335,2.0,11.0,97,0.01,,,-99.99,0.000000,,2013-02-22 17:52:00,
2013-02-22 08:01:00,55.0,54.0,-100.00,NNW,335,2.0,11.0,97,0.01,,,-99.99,0.000000,,2013-02-22 18:01:00,
2013-02-22 08:11:00,55.0,54.0,-100.00,NNW,335,2.0,11.0,97,0.01,,,-99.99,0.000000,,2013-02-22 18:11:00,
2013-02-22 08:42:00,55.0,54.0,-100.00,East,83,3.0,19.0,98,0.05,,,-99.99,14.000000,,2013-02-22 18:42:00,
2013-02-22 08:52:00,55.0,54.0,-100.00,East,83,3.0,19.0,98,0.05,,,-99.99,14.000000,,2013-02-22 18:52:00,
2013-02-22 09:01:00,55.0,54.0,-100.00,East,83,3.0,19.0,98,0.05,,,-99.99,14.000000,,2013-02-22 19:01:00,
2013-02-22 09:11:00,55.0,54.0,-100.00,East,83,3.0,19.0,98,0.05,,,-99.99,14.000000,,2013-02-22 19:11:00,
2013-02-22 09:21:00,55.0,54.0,-100.00,East,83,3.0,19.0,98,0.05,,,-99.99,14.000000,,2013-02-22 19:21:00,
2013-02-22 09:42:00,56.0,55.0,-100.00,East,98,3.0,15.0,97,0.04,,,-99.99,76.000000,,2013-02-22 19:42:00,
2013-02-22 09:52:00,56.0,55.0,-100.00,East,98,3.0,15.0,97,0.04,,,-99.99,76.000000,,2013-02-22 19:52:00,
2013-02-22 10:01:00,56.0,55.0,-100.00,East,98,3.0,15.0,97,0.04,,,-99.99,76.000000,,2013-02-22 20:01:00,
2013-02-22 10:11:00,56.0,55.0,-100.00,East,98,3.0,15.0,97,0.04,,,-99.99,76.000000,,2013-02-22 20:11:00,
2013-02-22 10:21:00,56.0,55.0,-100.00,East,98,3.0,15.0,97,0.04,,,-99.99,76.000000,,2013-02-22 20:21:00,
2013-02-22 10:42:00,56.0,55.0,-100.00,East,86,3.0,13.0,97,0.07,,,-99.99,140.000000,,2013-02-22 20:42:00,
2013-02-22 10:52:00,56.0,55.0,-100.00,East,86,3.0,13.0,97,0.07,,,-99.99,140.000000,,2013-02-22 20:52:00,
2013-02-22 11:01:00,56.0,55.0,-100.00,East,86,3.0,13.0,97,0.07,,,-99.99,140.000000,,2013-02-22 21:01:00,
2013-02-22 11:11:00,56.0,55.0,-100.00,East,86,3.0,13.0,97,0.07,,,-99.99,140.000000,,2013-02-22 21:11:00,
2013-02-22 11:21:00,56.0,55.0,-100.00,East,86,3.0,13.0,97,0.07,,,-99.99,140.000000,,2013-02-22 21:21:00,
2013-02-22 11:42:00,56.0,55.0,-100.00,East,86,3.0,22.0,97,0.17,,,-99.99,164.000000,,2013-02-22 21:42:00,
2013-02-22 11:52:00,56.0,55.0,-100.00,East,86,3.0,22.0,97,0.17,,,-99.99,164.000000,,2013-02-22 21:52:00,
2013-02-22 12:01:00,56.0,55.0,-100.00,East,86,3.0,22.0,97,0.17,,,-99.99,164.000000,,2013-02-22 22:01:00,
2013-02-22 12:11:00,56.0,55.0,-100.00,East,86,3.0,22.0,97,0.17,,,-99.99,164.000000,,2013-02-22 22:11:00,
2013-02-22 12:21:00,56.0,55.0,-100.00,East,86,3.0,22.0,97,0.17,,,-99.99,164.000000,,2013-02-22 22:21:00,
2013-02-22 12:42:00,57.0,56.0,-100.00,East,88,3.0,16.0,97,0.13,,,-99.99,251.000000,,2013-02-22 22:42:00,
2013-02-22 12:52:00,57.0,56.0,-100.00,East,88,3.0,16.0,97,0.13,,,-99.99,251.000000,,2013-02-22 22:52:00,
2013-02-22 13:01:00,57.0,56.0,-100.00,East,88,3.0,16.0,97,0.13,,,-99.99,251.000000,,2013-02-22 23:01:00,
2013-02-22 13:11:00,57.0,56.0,-100.00,East,88,3.0,16.0,97,0.13,,,-99.99,251.000000,,2013-02-22 23:11:00,
2013-02-22 13:21:00,57.0,56.0,-100.00,East,88,3.0,16.0,97,0.13,,,-99.99,251.000000,,2013-02-22 23:21:00,
2013-02-22 13:42:00,56.0,55.0,-100.00,East,83,4.0,12.0,96,0.05,,,2.44,242.000000,,2013-02-22 23:42:00,
2013-02-22 13:52:00,56.0,55.0,-100.00,East,83,4.0,12.0,96,0.05,,,2.44,242.000000,,2013-02-22 23:52:00,
2013-02-22 14:01:00,56.0,55.0,-100.00,East,83,4.0,12.0,96,0.05,,,2.44,242.000000,,2013-02-23 00:01:00,
2013-02-22 14:11:00,56.0,55.0,-100.00,East,83,4.0,12.0,96,0.05,,,2.44,242.000000,,2013-02-23 00:11:00,
2013-02-22 14:21:00,56.0,55.0,-100.00,East,83,4.0,12.0,96,0.05,,,2.44,242.000000,,2013-02-23 00:21:00,
2013-02-22 14:42:00,57.0,56.0,-100.00,East,85,4.0,15.0,96,0.08,,,2.40,339.000000,,2013-02-23 00:42:00,
2013-02-22 14:52:00,57.0,56.0,-100.00,East,85,4.0,15.0,96,0.08,,,2.40,339.000000,,2013-02-23 00:52:00,
2013-02-22 15:01:00,57.0,56.0,-100.00,East,85,4.0,15.0,96,0.08,,,2.40,339.000000,,2013-02-23 01:01:00,
2013-02-22 15:11:00,57.0,56.0,-100.00,East,85,4.0,15.0,96,0.08,,,2.40,339.000000,,2013-02-23 01:11:00,
2013-02-22 15:21:00,57.0,56.0,-100.00,East,85,4.0,15.0,96,0.08,,,2.40,339.000000,,2013-02-23 01:21:00,
2013-02-22 15:42:00,57.0,56.0,-100.00,East,86,3.0,13.0,97,0.15,,,2.46,269.000000,,2013-02-23 01:42:00,
2013-02-22 15:52:00,57.0,56.0,-100.00,East,86,3.0,13.0,97,0.15,,,2.46,269.000000,,2013-02-23 01:52:00,
2013-02-22 16:01:00,57.0,56.0,-100.00,East,86,3.0,13.0,97,0.15,,,2.46,269.000000,,2013-02-23 02:01:00,
2013-02-22 16:11:00,57.0,56.0,-100.00,East,86,3.0,13.0,97,0.15,,,2.46,269.000000,,2013-02-23 02:11:00,
2013-02-22 16:21:00,57.0,56.0,-100.00,East,86,3.0,13.0,97,0.15,,,2.46,269.000000,,2013-02-23 02:21:00,
2013-02-22 16:42:00,57.0,56.0,-100.00,East,88,3.0,12.0,97,0.08,,,2.45,260.000000,,2013-02-23 02:42:00,
2013-02-22 16:52:00,57.0,56.0,-100.00,East,88,3.0,12.0,97,0.08,,,2.45,260.000000,,2013-02-23 02:52:00,
2013-02-22 17:01:00,57.0,56.0,-100.00,East,88,3.0,12.0,97,0.08,,,2.45,260.000000,,2013-02-23 03:01:00,
2013-02-22 17:11:00,57.0,56.0,-100.00,East,88,3.0,12.0,97,0.08,,,2.45,260.000000,,2013-02-23 03:11:00,
2013-02-22 17:21:00,57.0,56.0,-100.00,East,88,3.0,12.0,97,0.08,,,2.45,260.000000,,2013-02-23 03:21:00,
2013-02-22 17:42:00,56.0,55.0,-100.00,East,79,3.0,16.0,97,0.02,,,2.36,121.000000,,2013-02-23 03:42:00,
2013-02-22 17:52:00,56.0,55.0,-100.00,East,79,3.0,16.0,97,0.02,,,2.36,121.000000,,2013-02-23 03:52:00,
2013-02-22 18:01:00,56.0,55.0,-100.00,East,79,3.0,16.0,97,0.02,,,2.36,121.000000,,2013-02-23 04:01:00,
2013-02-22 18:11:00,56.0,55.0,-100.00,East,79,3.0,16.0,97,0.02,,,2.36,121.000000,,2013-02-23 04:11:00,
2013-02-22 18:21:00,56.0,55.0,-100.00,East,79,3.0,16.0,97,0.02,,,2.36,121.000000,,2013-02-23 04:21:00,
2013-02-22 18:22:00,55.0,54.0,-100.00,East,85,3.0,13.0,97,0.03,,,2.11,59.000000,,2013-02-23 04:22:00,
2013-02-22 18:42:00,55.0,54.0,-100.00,East,85,3.0,13.0,97,0.03,,,2.11,59.000000,,2013-02-23 04:42:00,
2013-02-22 18:52:00,55.0,54.0,-100.00,East,85,3.0,13.0,97,0.03,,,2.11,59.000000,,2013-02-23 04:52:00,
2013-02-22 19:02:00,55.0,54.0,-100.00,East,85,3.0,13.0,97,0.03,,,2.11,59.000000,,2013-02-23 05:02:00,
2013-02-22 19:11:00,55.0,54.0,-100.00,East,85,3.0,13.0,97,0.03,,,2.11,59.000000,,2013-02-23 05:11:00,
2013-02-22 19:42:00,55.0,54.0,-100.00,East,87,3.0,11.0,97,0.03,,,1.75,7.000000,,2013-02-23 05:42:00,
2013-02-22 19:52:00,55.0,54.0,-100.00,East,87,3.0,11.0,97,0.03,,,1.75,7.000000,,2013-02-23 05:52:00,
2013-02-22 20:01:00,55.0,54.0,-100.00,East,87,3.0,11.0,97,0.03,,,1.75,7.000000,,2013-02-23 06:01:00,
2013-02-22 20:11:00,55.0,54.0,-100.00,East,87,3.0,11.0,97,0.03,,,1.75,7.000000,,2013-02-23 06:11:00,
2013-02-22 20:21:00,55.0,54.0,-100.00,East,87,3.0,11.0,97,0.03,,,1.75,7.000000,,2013-02-23 06:21:00,
2013-02-22 20:42:00,55.0,54.0,-100.00,ENE,76,3.0,18.0,97,0.02,,,1.63,0.000000,,2013-02-23 06:42:00,
2013-02-22 20:52:00,55.0,54.0,-100.00,ENE,76,3.0,18.0,97,0.02,,,1.63,0.000000,,2013-02-23 06:52:00,
2013-02-22 21:01:00,55.0,54.0,-100.00,ENE,76,3.0,18.0,97,0.02,,,1.63,0.000000,,2013-02-23 07:01:00,
2013-02-22 21:11:00,55.0,54.0,-100.00,ENE,76,3.0,18.0,97,0.02,,,1.63,0.000000,,2013-02-23 07:11:00,
2013-02-22 21:21:00,55.0,54.0,-100.00,ENE,76,3.0,18.0,97,0.02,,,1.63,0.000000,,2013-02-23 07:21:00,
2013-02-22 21:42:00,54.0,53.0,-100.00,SE,146,3.0,15.0,97,0.01,,,1.60,0.000000,,2013-02-23 07:42:00,
2013-02-22 21:52:00,54.0,53.0,-100.00,SE,146,3.0,15.0,97,0.01,,,1.60,0.000000,,2013-02-23 07:52:00,
2013-02-22 22:01:00,54.0,53.0,-100.00,SE,146,3.0,15.0,97,0.01,,,1.60,0.000000,,2013-02-23 08:01:00,
2013-02-22 22:11:00,54.0,53.0,-100.00,SE,146,3.0,15.0,97,0.01,,,1.60,0.000000,,2013-02-23 08:11:00,
2013-02-22 22:21:00,54.0,53.0,-100.00,SE,146,3.0,15.0,97,0.01,,,1.60,0.000000,,2013-02-23 08:21:00,
2013-02-22 22:42:00,54.0,53.0,-100.00,ESE,108,3.0,14.0,97,0.01,,,1.30,0.000000,,2013-02-23 08:42:00,
2013-02-22 22:52:00,54.0,53.0,-100.00,ESE,108,3.0,14.0,97,0.01,,,1.30,0.000000,,2013-02-23 08:52:00,
2013-02-22 23:01:00,54.0,53.0,-100.00,ESE,108,3.0,14.0,97,0.01,,,1.30,0.000000,,2013-02-23 09:01:00,
2013-02-22 23:11:00,54.0,53.0,-100.00,ESE,108,3.0,14.0,97,0.01,,,1.30,0.000000,,2013-02-23 09:11:00,
2013-02-22 23:21:00,54.0,53.0,-100.00,ESE,108,3.0,14.0,97,0.01,,,1.30,0.000000,,2013-02-23 09:21:00,
2013-02-22 23:42:00,55.0,54.0,-100.00,East,94,2.0,13.0,97,0.02,,,1.23,0.000000,,2013-02-23 09:42:00,
2013-02-22 23:52:00,55.0,54.0,-100.00,East,94,2.0,13.0,97,0.02,,,1.23,0.000000,,2013-02-23 09:52:00,